Louisa, VA

7:37 PM EDT on October 13, 2019 (GMT -0400)
Louisa County-Freeman

Weather History for KLKU - September, 2019

Change the Weather History Date:

Thursday, September 19, 2019

  Actual Average (WUND) Record (WUND)
Temperature  
Mean Temperature 59 °F -  
Max Temperature 71 °F - - (-1)
Min Temperature 47 °F - - (-1)
Degree Days  
Heating Degree Days 6    
Growing Degree Days 9 (Base 50)    
Moisture  
Dew Point 50 °F    
Average Humidity 75    
Maximum Humidity 99    
Minimum Humidity 38    
Precipitation  
Precipitation 0.00 in - - ()
Sea Level Pressure  
Sea Level Pressure 30.34 in    
Wind  
Wind Speed 3 mph ()    
Max Wind Speed 10 mph    
Max Gust Speed -    
Visibility 10.0 miles    
Events      
Averages and records for this station are not official NWS values.
T = Trace of Precipitation, MM = Missing Value Source: Averaged Metar Reports

Daily Weather History Graph

Daily Weather History Graph

Search for Another Location

Airport or City:

Astronomy

Sep. 19, 2019 Rise Set
Actual Time 6:56 AM EDT 7:13 PM EDT
Civil Twilight 6:30 AM EDT 7:40 PM EDT
Nautical Twilight 5:59 AM EDT 8:11 PM EDT
Astronomical Twilight 5:28 AM EDT 8:42 PM EDT
Moon 10:26 PM EDT (9/19) 11:53 AM EDT (9/19)
Length of Visible Light 13h 09m
Length of Day
12h 17m
Waning Gibbous, 74% of the Moon is Illuminated
Sep 19
Waning Gibbous
Sep 21
Last Quarter
Sep 28
New
Oct 5
First Quarter
Oct 13
Full

Hourly Weather History & Observations

Time (EDT) Temp. Dew Point Humidity Pressure Visibility Wind Dir Wind Speed Gust Speed Precip Events Conditions
12:15 AM 57.9 °F 53.1 °F 84% 30.30 in 10.0 mi ESE 4.6 mph - N/A   Clear
12:35 AM 56.1 °F 53.1 °F 89% 30.30 in 10.0 mi East 4.6 mph - N/A   Clear
12:55 AM 56.1 °F 52.9 °F 89% 30.30 in 10.0 mi East 3.5 mph - N/A   Clear
1:15 AM 54.3 °F 52.3 °F 93% 30.31 in 10.0 mi East 3.5 mph - N/A   Clear
1:35 AM 52.7 °F 51.4 °F 95% 30.31 in 10.0 mi East 3.5 mph - N/A   Clear
1:55 AM 52.2 °F 51.1 °F 96% 30.31 in 10.0 mi East 4.6 mph - N/A   Clear
2:15 AM 51.1 °F 50.4 °F 97% 30.31 in 10.0 mi East 4.6 mph - N/A   Mostly Cloudy
2:35 AM 50.7 °F 50.2 °F 98% 30.31 in 10.0 mi East 3.5 mph - N/A   Scattered Clouds
2:55 AM 50.7 °F 50.2 °F 98% 30.31 in 10.0 mi Calm Calm - N/A   Clear
3:15 AM 50.0 °F 49.5 °F 98% 30.32 in 10.0 mi Calm Calm - N/A   Clear
3:35 AM 49.5 °F 48.9 °F 98% 30.32 in 10.0 mi Calm Calm - N/A   Clear
3:55 AM 52.0 °F 51.6 °F 99% 30.33 in 10.0 mi NNW 5.8 mph - N/A   Clear
4:15 AM 51.8 °F 51.3 °F 98% 30.33 in 10.0 mi NNW 5.8 mph - N/A   Clear
4:35 AM 52.7 °F 51.8 °F 97% 30.33 in 10.0 mi North 3.5 mph - N/A   Clear
4:55 AM 53.6 °F 52.5 °F 96% 30.34 in 10.0 mi North 4.6 mph - N/A   Clear
5:15 AM 54.7 °F 53.4 °F 96% 30.34 in 10.0 mi NNE 5.8 mph - N/A   Mostly Cloudy
5:35 AM 55.4 °F 53.6 °F 94% 30.34 in 10.0 mi NNE 4.6 mph - N/A   Overcast
5:55 AM 53.2 °F 52.3 °F 97% 30.34 in 10.0 mi NE 3.5 mph - N/A   Scattered Clouds
6:15 AM 50.9 °F 50.2 °F 97% 30.35 in 10.0 mi Calm Calm - N/A   Clear
6:35 AM 49.8 °F 49.5 °F 99% 30.35 in 10.0 mi Calm Calm - N/A   Clear
6:55 AM 49.6 °F 49.3 °F 99% 30.36 in 7.0 mi Calm Calm - N/A   Clear
7:15 AM 48.7 °F 48.4 °F 99% 30.36 in 10.0 mi Calm Calm - N/A   Clear
7:35 AM 49.1 °F 48.7 °F 99% 30.36 in 10.0 mi Calm Calm - N/A   Clear
7:55 AM 52.0 °F 51.6 °F 99% 30.36 in 10.0 mi Calm Calm - N/A   Clear
8:15 AM 55.8 °F 54.5 °F 96% 30.36 in 10.0 mi Calm Calm - N/A   Clear
8:35 AM 57.6 °F 54.1 °F 88% 30.37 in 10.0 mi Calm Calm - N/A   Clear
8:55 AM 59.4 °F 54.7 °F 84% 30.37 in 10.0 mi NNE 3.5 mph - N/A   Clear
9:15 AM 61.9 °F 55.6 °F 80% 30.38 in 10.0 mi NNE 4.6 mph - N/A   Clear
9:35 AM 62.2 °F 53.6 °F 73% 30.38 in 10.0 mi Calm Calm - N/A   Scattered Clouds
9:55 AM 65.1 °F 52.5 °F 64% 30.39 in 10.0 mi NE 8.1 mph - N/A   Overcast
10:15 AM 65.1 °F 51.8 °F 62% 30.39 in 10.0 mi NE 8.1 mph - N/A   Overcast
10:35 AM 65.3 °F 51.6 °F 61% 30.39 in 10.0 mi NNE 8.1 mph - N/A   Overcast
10:55 AM 65.7 °F 50.7 °F 58% 30.39 in 10.0 mi NE 8.1 mph - N/A   Overcast
11:15 AM 66.9 °F 49.6 °F 54% 30.39 in 10.0 mi East 8.1 mph - N/A   Overcast
11:35 AM 66.6 °F 48.6 °F 52% 30.39 in 10.0 mi NNE 10.4 mph - N/A   Mostly Cloudy
11:55 AM 67.1 °F 49.1 °F 52% 30.39 in 10.0 mi NNE 5.8 mph - N/A   Mostly Cloudy
12:15 PM 68.0 °F 49.3 °F 51% 30.38 in 10.0 mi North 9.2 mph - N/A   Overcast
12:35 PM 65.7 °F 47.7 °F 52% 30.39 in 10.0 mi NE 5.8 mph - N/A   Mostly Cloudy
12:55 PM 65.3 °F 47.3 °F 52% 30.38 in 10.0 mi ENE 4.6 mph - N/A   Scattered Clouds
1:15 PM 68.7 °F 47.5 °F 47% 30.37 in 10.0 mi NNE 5.8 mph - N/A   Clear
1:35 PM 68.7 °F 47.8 °F 47% 30.37 in 10.0 mi ENE 4.6 mph - N/A   Scattered Clouds
1:55 PM 70.2 °F 47.5 °F 44% 30.36 in 10.0 mi NW 4.6 mph - N/A   Clear
2:15 PM 70.0 °F 46.6 °F 43% 30.36 in 10.0 mi ENE 9.2 mph - N/A   Clear
2:35 PM 70.2 °F 46.0 °F 42% 30.35 in 10.0 mi Calm Calm - N/A   Clear
2:55 PM 70.7 °F 46.8 °F 42% 30.34 in 10.0 mi ESE 6.9 mph - N/A   Clear
3:15 PM 70.9 °F 46.0 °F 41% 30.34 in 10.0 mi SSE 5.8 mph - N/A   Clear
3:35 PM 71.2 °F 46.2 °F 41% 30.33 in 10.0 mi NE 3.5 mph - N/A   Clear
3:55 PM 71.2 °F 46.9 °F 42% 30.33 in 10.0 mi ESE 4.6 mph - N/A   Clear
4:15 PM 71.6 °F 46.2 °F 40% 30.32 in 10.0 mi SE 5.8 mph - N/A   Clear
4:35 PM 71.2 °F 45.3 °F 39% 30.32 in 10.0 mi ESE 4.6 mph - N/A   Clear
4:55 PM 71.4 °F 45.5 °F 39% 30.32 in 10.0 mi SE 3.5 mph - N/A   Clear
5:15 PM 71.1 °F 44.4 °F 38% 30.32 in 10.0 mi Calm Calm - N/A   Clear
5:35 PM 70.3 °F 44.2 °F 39% 30.32 in 10.0 mi Calm Calm - N/A   Clear
5:55 PM 70.2 °F 46.6 °F 43% 30.32 in 10.0 mi SSE 4.6 mph - N/A   Clear
6:15 PM 68.0 °F 52.7 °F 58% 30.32 in 10.0 mi Calm Calm - N/A   Clear
6:35 PM 64.4 °F 52.9 °F 66% 30.32 in 10.0 mi Calm Calm - N/A   Clear
6:55 PM 60.6 °F 52.7 °F 75% 30.32 in 10.0 mi Calm Calm - N/A   Clear
7:15 PM 57.9 °F 52.2 °F 81% 30.32 in 10.0 mi Calm Calm - N/A   Clear
7:35 PM 55.4 °F 52.5 °F 90% 30.33 in 10.0 mi Calm Calm - N/A   Clear
7:55 PM 54.0 °F 51.3 °F 91% 30.34 in 10.0 mi Calm Calm - N/A   Clear
8:15 PM 52.7 °F 49.6 °F 89% 30.34 in 10.0 mi Calm Calm - N/A   Clear
8:35 PM 52.2 °F 49.1 °F 89% 30.34 in 10.0 mi ESE 3.5 mph - N/A   Clear
8:55 PM 55.8 °F 48.7 °F 77% 30.34 in 10.0 mi ESE 5.8 mph - N/A   Clear
9:15 PM 56.7 °F 48.7 °F 75% 30.35 in 10.0 mi ESE 4.6 mph - N/A   Clear
9:35 PM 55.2 °F 49.1 °F 80% 30.34 in 10.0 mi East 4.6 mph - N/A   Clear
9:55 PM 53.8 °F 48.9 °F 84% 30.34 in 10.0 mi ESE 4.6 mph - N/A   Clear
10:15 PM 54.0 °F 48.6 °F 82% 30.34 in 10.0 mi ESE 4.6 mph - N/A   Clear
10:35 PM 53.8 °F 48.4 °F 82% 30.34 in 10.0 mi ESE 3.5 mph - N/A   Clear
10:55 PM 50.4 °F 48.0 °F 92% 30.35 in 10.0 mi SSE 3.5 mph - N/A   Clear
11:15 PM 48.7 °F 47.3 °F 95% 30.35 in 10.0 mi Calm Calm - N/A   Clear
11:35 PM 47.8 °F 46.6 °F 95% 30.35 in 10.0 mi SE 3.5 mph - N/A   Clear
11:55 PM 47.7 °F 46.8 °F 97% 30.34 in 10.0 mi SE 3.5 mph - N/A   Clear